www.pogodaiklimat.ru

Погода и климат >> Архив погоды >> Россия >> Чукотка >> Баимка


ПОГОДА в Баимке

  • Прогноз погоды в Баимке
  • Монитор погоды в Баимке

АРХИВ ПОГОДЫ в Баимке

Время (UTC), дата Ветер
(напр.,м/с)
 
Видим.   Явления Облачность Т
(С)
Тd
(С)
f
(%)
Тe
(С)
Тes
(С)
Комфортность P
(гПа)
Po
(гПа)
Тmin
(С)
Tmax
(С)
R
(мм)
R24
(мм)
S
(см)
00 13.08 С 3
{6}
20 км 6/6 600 м
[Sc]
+15.0 +9.8 71 +14 +17 1003.9 970.5
03 13.08 СЗ 4
{8}
20 км 6/3 600 м
[Cu Sc Ci fib]
+15.8 +9.0 64 +15 +18 1004.1 970.9
06 13.08 С 2
{8}
20 км 8/3 600 м
[Sc diur, vesp Ac trans Ci fib]
+16.7 +8.8 60 +17 +18 1003.9 970.8
09 13.08 СЗ 1
{5}
20 км 9/6 600 м
[Sc Ac lent Ci fib]
+14.1 +9.4 73 +15 +15 1004.4 970.9 +17.4
12 13.08 СЗ 2
{7}
20 км 10/10 600 м
[Sc]
+9.7 +6.1 78 +8 +8 1006.6 972.5
15 13.08 С 1
{5}
20 км 10/10 600 м
[Sc]
+8.5 +6.4 87 +8 +8 1007.8 973.6
18 13.08 С 3
{5}
20 км {дождь} 10/10 600 м
[Sc]
+7.9 +7.3 96 +5 +5 1009.7 975.3
21 13.08 С 3
{6}
20 км 10/10 300 м
[Sc]
+7.9 +6.1 88 +5 +5 1011.4 977.0 +5.8 0.0
00 14.08 СЗ 3
{6}
20 км 10/10 300 м
[Sc]
+7.1 +5.9 92 +4 +4 1013.2 978.6
03 14.08 СЗ 4
{7}
20 км 8/8 600 м
[Sc]
+11.1 +5.9 70 +9 +10 1013.3 979.2
06 14.08 С 3
{7}
20 км 10/10 600 м
[Sc]
+10.0 +6.1 77 +8 +8 1014.9 980.5
09 14.08 С 2
{5}
20 км 9/9 600 м
[Sc]
+8.5 +5.6 82 +7 +7 1016.8 982.2 +11.4
12 14.08 штиль 0
{3}
4000 м дымка ясно -0.8 -0.8 100 -2 -2 1019.6 983.7
15 14.08 ЮВ 1
{2}
4000 м дымка 3/0
[Ci fib]
-4.1 -4.1 100 -7 -7 1021.3 984.9
18 14.08 Ю 1
{2}
500 м туман ?/? -0.9 -0.9 100 -3 -3 1021.9 986.0
21 14.08 Ю 1
{3}
20 км в посл. час туман 10/3 300 м
[St Ci fib]
+3.5 +3.5 100 +2 +4 1022.4 986.9 -4.4
00 15.08 СЗ 4
{8}
20 км {туман} 3/1 600 м
[Cu hum Ci fib]
+10.1 +0.2 50 +8 +12 1021.4 986.8
03 15.08 СЗ 3
{9}
20 км 3/1 600 м
[Sc Ci fib]
+12.1 -0.7 41 +11 +16 1021.1 986.8
06 15.08 С 4
{9}
20 км 1/1 600 м
[Sc]
+12.8 -1.7 37 +11 +13 1021.3 987.0
09 15.08 С 2
{7}
20 км 3/3 600 м
[Sc]
+9.0 +0.2 54 +8 +8 1023.4 988.7 +13.4
12 15.08 Ю 2
{5}
4000 м дымка ясно +0.6 -0.8 90 -3 -3 1026.4 990.4
15 15.08 Ю 2
{4}
4000 м дымка ясно -2.8 -2.8 100 -7 -7 1028.1 991.7
18 15.08 штиль 0
{3}
50 км дымка ?/? -4.7 -4.7 100 -6 -6 1029.9 993.1
21 15.08 штиль 0
{2}
10 км дым ясно +5.1 -0.2 69 +4 +9 1029.3 993.9 -5.1
00 16.08 З 1
{4}
10 км дым ясно +12.3 +0.2 43 +13 +21 1027.9 993.4
03 16.08 СВ 2
{7}
10 км дым ясно +15.9 -1.2 31 +16 +23 1027.0 992.9
06 16.08 В 3
{8}
20 км ясно +15.7 -1.2 31 +15 +17 1026.8 992.6
09 16.08 штиль 0
{7}
20 км ясно +8.6 +3.0 68 +8 +8 1028.0 993.0 +16.1
12 16.08 ЮВ 2
{3}
20 км ясно +0.1 -0.8 94 -4 -4 1030.0 993.9
15 16.08 Ю 1
{3}
20 км ясно -1.4 -1.6 99 -4 -4 1030.6 994.3
18 16.08 Ю 1
{4}
20 км ясно -1.8 -1.3 100 -4 -4 1031.4 995.1
21 16.08 ЮВ 5
{9}
20 км 3/0
[Ci fib]
+11.7 0.0 44 +10 +11 1029.7 995.0 -4.3
00 17.08 ЮВ 5
{11}
20 км 3/0
[Ci fib]
+15.1 -1.4 32 +14 +18 1029.2 995.0
03 17.08 ЮВ 5-10
{10}
20 км 3/0
[Ci fib]
+18.1 -2.7 24 +18 +21 1028.2 994.4
06 17.08 ЮВ 5
{10}
20 км 6/0
[Ac trans Ci fib]
+18.2 -2.7 24 +18 +19 1027.9 994.1
09 17.08 Ю 3
{11}
20 км 8/3 600 м
[Sc Ci fib]
+14.1 0.0 38 +13 +13 1029.0 994.7 +19.1
12 17.08 ЮВ 4
{8}
20 км 8/3 600 м
[Sc Ci fib]
+10.4 +1.3 53 +8 +8 1030.1 995.3
15 17.08 Ю 4
{8}
20 км 8/4 600 м
[Sc Ci fib]
+8.8 +3.4 69 +6 +6 1029.7 994.8
18 17.08 Ю 4
{8}
20 км 8/3 600 м
[Sc Ci fib]
+9.0 +4.3 72 +6 +6 1029.4 994.5
21 17.08 ЮВ 7-11
{11}
20 км 9/1 600 м
[Sc Ci]
+12.6 +5.0 60 +10 +11 1028.5 994.1 +8.4
00 18.08 ЮВ 5
{11}
20 км 9/9 600 м
[Sc]
+13.2 +5.3 59 +11 +12 1028.1 993.7
03 18.08 ЮВ 6
{11}
20 км 9/8 600 м
[Sc Ac trans]
+14.3 +6.2 58 +13 +13 1026.8 992.5
06 18.08 ЮВ 5
{10}
20 км 10/8 600 м
[Sc Ac und]
+14.3 +6.2 58 +13 +13 1026.1 991.9
09 18.08 ЮВ 4
{9}
4000 м слаб. дождь 10/10 600 м
[Sc]
+11.7 +8.2 79 +10 +10 1026.2 991.8 +14.9 0.0
12 18.08 Ю 3
{7}
4000 м слаб. дождь 10/8 600 м
[Sc As op]
+9.4 +8.8 96 +7 +7 1026.9 992.2
15 18.08 Ю 3
{6}
4000 м слаб. дождь 10/8 600 м
[Sc As op]
+9.1 +8.9 99 +6 +6 1026.4 991.6
18 18.08 Ю 3
{5}
20 км {дождь} 10/5 600 м
[Sc Ci fib]
+8.8 +8.2 96 +6 +6 1026.2 991.4
21 18.08 ЮВ 1
{4}
20 км 3/1 600 м
[Sc Ci fib]
+13.0 +8.8 76 +13 +16 1025.8 991.5 +8.3 2
00 19.08 ЮВ 1
{3}
20 км 4/4 600 м
[Cu hum]
+17.1 +8.5 57 +18 +23 1025.1 991.3
03 19.08 ЮЗ 2
{4}
20 км 8/6 600 м
[Cu med, cong Ci fib]
+19.8 +8.0 46 +21 +24 комфорт 1024.1 990.6
06 19.08 С 1
{5}
20 км 8/4 600 м
[Cu med, cong Ci fib]
+20.7 +8.0 44 +23 +24 комфорт 1023.7 990.3
09 19.08 штиль 0
{5}
20 км 9/4 600 м
[Sc diur, vesp Ci fib]
+13.3 +10.3 82 +13 +13 1024.7 990.5 +20.9
12 19.08 ЮВ 3
{3}
20 км 8/3 600 м
[Sc Ci fib]
+8.4 +7.6 95 +6 +6 1025.5 990.6
15 19.08 Ю 2
{4}
20 км 4/1 600 м
[Sc Ci fib]
+4.7 +4.7 100 +2 +2 1025.9 990.6
18 19.08 Ю 2
{5}
20 км 1/0
[Ci fib]
+5.3 +5.3 100 +2 +3 1025.9 990.6
21 19.08 Ю 3
{5}
20 км 1/0
[Ci fib]
+15.6 +8.5 63 +15 +18 1023.6 989.6 +3.1

 

Местоположение метеостанции Баимка (Чукотка, Россия): широта 66.53 долгота 164.20 высота над уровнем моря 287 м.

В архиве по умолчанию представлена погода в Баимке за последнюю неделю. Архивные данные за месяц целиком и за предыдущие месяцы, начиная с января 2011 года, Вы можете получить, выбрав интересующий диапазон дат из раскрывающегося списка и нажав кнопку "Ввод!".


*Определитесь, кто Вы:
робот инопланетянин человек

Внимание! Время в таблицах - всемирное. Для получения местного времени необходимо прибавить поправку, которая равна 12 ч.

Смотрите также архив погоды в соседних городах и на ближайших метеорологических станциях:

Погода в Островном (Чукотка, Россия) (177 км)
Погода в Илирнее (Чукотка, Россия) (180 км)
Погода в Билибино (Чукотка, Россия) (194 км)
Погода в Омолоне (Чукотка, Россия) (222 км)
Погода в Константиновской (Чукотка, Россия) (224 км)
Погода в Анюйске (Чукотка, Россия) (233 км)
Погода в Верхне-Пенжино (Камчатский край, Россия) (257 км)
Погода в Черском (Якутия, Россия) (274 км)
Погода в Кегали (Магаданская область, Россия) (294 км)
Погода в Колымской (Якутия, Россия) (340 км)

Пояснения к столбцам:

Ветер - указаны скорость ветра в м/с - средняя за 10 мин, порывы в срок и между сроками (в фигурных скобках) и направление, откуда дует ветер: С - северный, СВ - северо-восточный, В - восточный, ЮВ - юго-восточный, Ю - южный, ЮЗ - юго-западный, З - западный, СЗ - северо-западный.
Видимость - горизонтальная дальность видимости в метрах или километрах. При видимости от 1 до 10 км при отсутствии осадков обычно наблюдается дымка, при ухудшении видимости до 1 км и менее - туман. В сухую погоду видимость может ухудшаться дымом, пылью или мглою.
Явления - указаны атмосферные явления, наблюдавшиеся в срок или в последний час перед сроком; фигурными скобками обозначены явления, наблюдавшиеся между сроками (за 1-3 часа до срока); квадратными скобками обозначены град или гололедные отложения с указанием их диаметра в мм.
Облачность - указаны через наклонную черту общая и нижняя облачность в баллах и высота нижней границы облаков в метрах; квадратными скобками обозначены формы облаков: Ci - перистые, Cs - перисто-слоистые, Cc - перисто-кучевые, Ac - высококучевые, As - высокослоистые, Sc - слоисто-кучевые, Ns - слоисто-дождевые, Cu - кучевые, Cb - кучево-дождевые. Подробнее классификацию облаков см. в Атласе облаков (PDF).
T - Температура воздуха - температура, измеренная на высоте 2 м над землей.
Td - Температура точки росы - температура, при понижении до которой содержащийся в воздухе водяной пар достигнет насыщения.
f - Относительная влажность воздуха - влажноcть воздуха, измеренная на высоте 2 м над землей.
Te - Эффективная температура - температура, которую ощущает одетый по сезону человек в тени. Характеристика душности погоды. При расчете учитывается влияние влажности воздуха и скорости ветра на теплоощущения человека.
Tes - Эффективная температура на солнце - температура, которую ощущает человек, с поправкой на солнечный нагрев. Характеристика знойности погоды. Зависит от высоты солнца над горизонтом, облачности и скорости ветра. Ночью, в пасмурную погоду, а также при ветре 12 м/с и более поправка равна нулю.
P - Атмосферное давление - приведенное к уровню моря атмосферное давление.
Po - Атмосферное давление - измеренное на уровне метеостанции атмосферное давление.
Tmin - Минимальная температура - минимум температуры воздуха на высоте 2 м над землей.
Tmax - Максимальная температура - максимум температуры воздуха на высоте 2 м над землей.
R - Количество осадков - Количество выпавших осадков за период времени, мм. При наведении курсора мыши на число - период времени, за который выпало указанное количество осадков.
R24 - Количество осадков - Количество выпавших осадков за 24 часа, мм.
S - Снежный покров - Высота снежного покрова, см. При наведении курсора мыши на число - состояние снежного покрова и степень покрытия местности в баллах.